Regional Weather Roundup
Issued by NWS

Home | Current Version | Previous Version | Graphics & Text | Print | Product List | Glossary On
Versions: 1 2 3 4 5 6 7 8 9 10 11 12 13 14 15 16 17 18 19 20 21 22 23 24 25 26 27 28 29 30 31 32 33 34 35 36 37 38 39 40 41 42 43 44 45 46 47 48 49 50
000
ASUS43 KOAX 300902
RWRNE

WEATHER ROUNDUP FOR NEBRASKA
NATIONAL WEATHER SERVICE OMAHA NE
400 AM CDT MON MAR 30 2015

NOTES: SATELLITE DATA IS BEING USED TO AUGMENT CLOUD COVER ABOVE
       12000 FEET.
       "FAIR" INDICATES FEW OR NO CLOUDS BELOW 12,000 FEET WITH NO
       SIGNIFICANT WEATHER AND/OR OBSTRUCTIONS TO VISIBILITY.

  * THESE STATIONS DO NOT REPORT WEATHER SUCH AS RAIN...SNOW OR FOG.

NEZ001>004-019>022-054>056-301000-
NEBRASKA PANHANDLE

CITY           SKY/WX    TMP DP  RH WIND       PRES   REMARKS
SCOTTSBLUFF    CLEAR     36  23  59 NE7       30.05F WCI  30
ALLIANCE       CLEAR     36  23  59 SW7       30.05F WCI  30
CHADRON        CLEAR     30  23  75 W7        30.02F WCI  23
KIMBALL        CLEAR     37  22  53 W6        30.07F WCI  33
SIDNEY         CLEAR     44  22  41 SW13      30.07F
$$

NEZ057>060-069>072-079>082-301000-
SOUTHWEST NEBRASKA

CITY           SKY/WX    TMP DP  RH WIND       PRES   REMARKS
NORTH PLATTE   CLEAR     41  17  38 S9        30.09F
IMPERIAL         N/A     38  19  46 SW6       30.11F WCI  33
LEXINGTON      PTCLDY    45  14  29 S7        30.11F
MCCOOK         CLEAR     46  15  28 S12       30.12F
OGALLALA       CLEAR     42  21  44 SW15      30.08F
$$

NEZ005>010-023>029-035>040-094-301000-
NORTH CENTRAL NEBRASKA

CITY           SKY/WX    TMP DP  RH WIND       PRES   REMARKS
VALENTINE      CLEAR     41  21  44 SW9       30.02F
AINSWORTH      CLEAR     45  17  32 SW13      30.03F
BROKEN BOW     MOCLDY    46  18  32 S12       30.09F
O`NEILL        PTCLDY    42  23  46 SW8       30.06F
ORD            MOCLDY    31  18  58 CALM      30.08F
$$

NEZ041-046>049-061>064-073>077-083>087-301000-
SOUTH CENTRAL NEBRASKA

CITY           SKY/WX    TMP DP  RH WIND       PRES   REMARKS
GRAND ISLAND   CLOUDY    47  18  31 SW13      30.13F
AURORA         MOCLDY    41  20  43 SW9       30.12F
HASTINGS       MOCLDY    45  17  32 SW9       30.12F
HEBRON         PTCLDY    33  24  69 CALM      30.15F
HOLDREGE       MOCLDY    45  14  29 SW10      30.13S
KEARNEY *      CLOUDY    45  16  31 S9        30.12F
YORK           MOCLDY    39  23  52 SW8       30.13F WCI  34
$$

NEZ011>018-030>034-042>045-301000-
NORTHEAST NEBRASKA

CITY           SKY/WX    TMP DP  RH WIND       PRES   REMARKS
NORFOLK        PTCLDY    41  21  44 CALM      30.07F
ALBION         PTCLDY    40  18  40 CALM      30.09F
BLAIR          CLEAR     38  24  56 SW8       30.10S WCI  32
COLUMBUS *     PTCLDY    28  18  64 CALM      30.12F
FREMONT        CLEAR     31  24  74 W6        30.11F WCI  25
TEKAMAH        CLEAR     31  19  61 S6        30.10  WCI  25
WAYNE          PTCLDY    31  22  70 SW7       30.08F WCI  24
$$

NEZ050>053-065>068-078-088>093-301000-
SOUTHEAST NEBRASKA

CITY           SKY/WX    TMP DP  RH WIND       PRES   REMARKS
LINCOLN        PTCLDY    38  25  59 W3        30.14S
OMAHA EPPLEY   PTCLDY    40  27  59 S6        30.11F
BEATRICE       PTCLDY    31  26  81 CALM      30.15S
FALLS CITY     CLEAR     35  27  72 CALM      30.15F
NEBRASKA CITY  CLEAR     38  23  54 SW7       30.12F WCI  33
PLATTSMOUTH    CLEAR     42  20  41 SW7       30.10F
$$

NEZ044-045-051>053-067-301000-
OMAHA AREA

CITY           SKY/WX    TMP DP  RH WIND       PRES   REMARKS
OMAHA EPPLEY   PTCLDY    40  27  59 S6        30.11F
BLAIR          CLEAR     38  24  56 SW8       30.10S WCI  32
FREMONT        CLEAR     31  24  74 W6        30.11F WCI  25
MILLARD        CLEAR     33  28  80 CALM      30.12R
PLATTSMOUTH    CLEAR     42  20  41 SW7       30.10F
WAHOO          FAIR      43  22  44 W9        30.11F
$$


USA.gov is the U.S. government's official web portal to all federal, state and local government web resources and services.